[Iaude] MPEC B104: 2017 BE29 [a=1.73,e=0.26,i=16.1,H=21.1]

mpec at si.edu mpec at si.edu
Sat Jan 28 20:25:20 EST 2017


M.P.E.C. 2017-B104                               Issued 2017 Jan. 29, 01:21 UT
 
     The Minor Planet Electronic Circulars contain information on unusual
         minor planets and routine data on comets.  They are published
    on behalf of Division F of the International Astronomical Union by the
          Minor Planet Center, Smithsonian Astrophysical Observatory,
                          Cambridge, MA 02138, U.S.A.

             Prepared using the Tamkin Foundation Computer Network

                              MPC at CFA.HARVARD.EDU
            URL http://www.minorplanetcenter.net/    ISSN 1523-6714


                                   2017 BE29
 
Observations:
     K17B29E  C2017 01 04.48324 10 35 42.288+17 49 06.95         21.0 wLEB104F51
     K17B29E  C2017 01 04.49484 10 35 42.389+17 48 39.37         21.1 wLEB104F51
     K17B29E  C2017 01 04.50648 10 35 42.495+17 48 11.56         21.1 wLEB104F51
     K17B29E  C2017 01 04.51820 10 35 42.578+17 47 43.91         21.2 wLEB104F51
     K17B29E* C2017 01 26.49458 10 24 16.524+01 05 59.62         20.6 wLEB104F51
     K17B29E  C2017 01 26.50609 10 24 15.520+01 05 26.01         20.6 wLEB104F51
     K17B29E  C2017 01 26.51763 10 24 14.499+01 04 52.27         20.6 wLEB104F51
     K17B29E  C2017 01 26.52922 10 24 13.489+01 04 18.50         20.6 wLEB104F51
     K17B29E KC2017 01 28.05773 10 22 10.87 -00 10 02.5          19.9 RoEB104K88
     K17B29E KC2017 01 28.06234 10 22 10.45 -00 10 15.5          20.0 RoEB104K88
     K17B29E KC2017 01 28.06694 10 22 10.05 -00 10 28.7          19.8 RoEB104K88
     K17B29E KC2017 01 29.00617 10 20 51.17 -00 55 50.3          19.7 RoEB104K88
     K17B29E KC2017 01 29.01135 10 20 50.65 -00 56 04.9          20.1 RoEB104K88
     K17B29E KC2017 01 29.01653 10 20 50.16 -00 56 20.6          19.9 RoEB104K88
 
Observer details:
F51 Pan-STARRS 1, Haleakala.  Observers B. Gibson, T. Goggia, S. Kahale,
    T. Lowe, A. Schultz, M. Willman.  Measurers K. Chambers, S. Chastel,
    L. Denneau, H. Flewelling, M. Huber, E. Lilly, E. Magnier, R. Wainscoat,
    C. Waters, R. Weryk.  1.8-m Ritchey-Chretien + CCD.
K88 GINOP-KHK, Piszkesteto.  Observer K. Sarneczky.  0.60-m Schmidt + CCD.
 
Orbital elements:
2017 BE29                                                Earth MOID = 0.2874 AU
Epoch 2017 Feb. 16.0 TT = JDT 2457800.5                 MPC
M  14.20940              (2000.0)            P               Q
n   0.43482351     Peri.  178.27032     -0.57365042     -0.78816164
a   1.7255493      Node   306.66812     +0.74813240     -0.39331314
e   0.2629771      Incl.   16.14148     +0.33350128     -0.47339835
P   2.27           H   21.1           G   0.15           U   5
Residuals in seconds of arc
170104 F51  0.0   0.0     170126 F51  0.0   0.0     170128 K88  0.2+  0.0
170104 F51  0.0   0.0     170126 F51  0.1-  0.0     170129 K88  0.3+  0.1+
170104 F51  0.1+  0.1-    170126 F51  0.1+  0.0     170129 K88  0.2-  0.5+
170104 F51  0.0   0.1+    170128 K88  0.1+  0.5-    170129 K88  0.3-  0.2-
170126 F51  0.1-  0.1+    170128 K88  0.0   0.2-

Ephemeris:
2017 BE29                a,e,i = 1.73, 0.26, 16                  q = 1.2718
Date    TT    R. A. (2000) Decl.     Delta      r     Elong.  Phase     V
2016 12 30    10 33 10.1 +21 18 49   0.4232  1.2774   125.7    38.7    21.3
...
2017 01 14    10 35 02.3 +11 01 46   0.3593  1.2718   137.5    31.5    20.7
...
2017 01 22    10 29 24.4 +04 44 36   0.3368  1.2732   144.4    26.7    20.5
...
2017 01 28    10 22 16.0 -00 06 52   0.3264  1.2762   149.2    23.3    20.3
2017 01 29    10 20 51.6 -00 55 10   0.3253  1.2769   149.9    22.7    20.3
2017 01 30    10 19 24.0 -01 43 12   0.3243  1.2776   150.6    22.2    20.3
...
2017 02 05    10 09 40.9 -06 22 05   0.3223  1.2830   153.8    19.8    20.2
...
2017 02 13    09 55 15.5 -11 50 48   0.3293  1.2926   154.6    19.1    20.2
...
2017 02 28    09 30 30.8 -18 48 43   0.3697  1.3178   147.6    23.7    20.7

A. U. Tomatic                (C) Copyright 2017 MPC           M.P.E.C. 2017-B104




More information about the Iaude mailing list